Regional Weather Roundup
Issued by NWS

Home | Current Version | Previous Version | Graphics & Text | Print | Product List | Glossary Off
Versions: 1 2 3 4 5 6 7 8 9 10 11 12 13 14 15 16 17 18 19 20 21 22 23 24 25 26 27

000
ASUS45 KBOU 102107
RWRCO

WEATHER ROUNDUP FOR COLORADO
NATIONAL WEATHER SERVICE DENVER/BOULDER CO
200 PM MST SAT DEC 10 2016

NOTE: "FAIR" INDICATES FEW OR NO CLOUDS BELOW 12000 FEET WITH NO
SIGNIFICANT WEATHER AND/OR OBSTRUCTIONS TO VISIBILITY.

COZ001>005-013-030-031-102200-
...NORTHWEST COLORADO...

CITY           SKY/WX    TMP DP  RH WIND       PRES   REMARKS
CRAIG          LGT RAIN  42  30  62 SW16      29.88F
HAYDEN         CLOUDY    39  28  65 W16G24    29.88F
MEEKER         CLOUDY    40  31  70 SW20      29.91F
MOUNT WERNER   NOT AVBL
STEAMBOAT SPGS CLOUDY    33  31  94 E7        29.88F WCI  27
WALDEN           N/A     36  28  75 SW14G20   29.85F
$$

COZ006>008-011-102200-
...WEST CENTRAL VALLEYS...

CITY           SKY/WX    TMP DP  RH WIND       PRES   REMARKS
GRAND JUNCTION FAIR      34  25  69 W3        30.01F
MONTROSE       FAIR      45  27  49 CALM      30.01F
EAGLE          LGT RAIN  36  34  93 NW7       29.99F
RIFLE          CLOUDY    32  25  75 CALM      30.00F
DELTA          FAIR      43  27  52 CALM      30.00F
NUCLA          FAIR      45  28  53 CALM      30.06F
$$

COZ017>023-064>068-102200-
...SOUTHWEST COLORADO...

CITY           SKY/WX    TMP DP  RH WIND       PRES   REMARKS
DURANGO        FAIR      48  25  40 VRB5      30.08F
CORTEZ         FAIR      50  29  44 S8        30.06F
PAGOSA SPRINGS FAIR      45  24  45 SW3       30.11F
TELLURIDE      NOT AVBL
WOLF CREEK PAS FAIR      27  21  80 SW20G29   30.19F WCI  13
$$

COZ009-010-012-014-032>034-037-058>063-102200-
...CENTRAL COLORADO...

CITY           SKY/WX    TMP DP  RH WIND       PRES   REMARKS
ASPEN          CLOUDY    39  29  67 E9        29.97F
BUENA VISTA    CLOUDY    48  15  26 SW30G40   29.93R
COPPER MTN     NOT AVBL
BERTHOUD PASS  HVY SNOW  21   9  58 W35       29.93F VSB<1/4 WCI   2
COTTONWOOD PAS CLOUDY    41  14  33 W25G45    29.96S
GUNNISON       FAIR      24  19  81 CALM      30.06F
KREMMLING      DRIZZLE   41  34  75 W28G35    29.91R
LEADVILLE      SNOW      29  26  89 NE5       29.99F VSB 1/4 WCI  24
MONARCH PASS   CLOUDY    28  14  54 W43G60    30.15F HAZE    WCI  10
SALIDA         FAIR      56  12  17 W30G38    29.97F
SUNLIGHT       SNOW      27  25  93 SW24G40   30.02F VSB 1/2 WCI  12
WILKERSON PASS FAIR      34  18  51 SW23G33   30.00R WCI  22
$$

COZ069>075-102200-
...SAN LUIS VALLEY/SANGRE DE CRISTO MOUNTAINS...

CITY           SKY/WX    TMP DP  RH WIND       PRES   REMARKS
ALAMOSA        FAIR      50  23  34 NE3       29.99F
LA VETA PASS   FAIR      41  19  42 NE28G51   29.96F
SAGUACHE       FAIR      41  21  45 CALM      30.00F
$$

COZ035-036-038>040-102200-
...NORTHERN COLORADO FRONT RANGE...

CITY           SKY/WX    TMP DP  RH WIND       PRES   REMARKS
DENVER INTL AP PTSUNNY   47  28  47 CALM      29.76S
DMNS CITY PARK   N/A     56  25  30 E14       29.73F
AURORA         NOT AVBL
FRONT RANGE AP PTSUNNY   48  32  53 N6        29.76F
ERIE MUNI ARPT FAIR      50  31  47 W12       29.75F
BOULDER MUN AP FAIR      50  32  50 W23G31    29.71F
CENTENNIAL     PTSUNNY   58  22  24 NW20      29.76F
BROOMFIELD     PTSUNNY   59  28  31 SW18G33   29.76F
FORT COLLINS   FAIR      45  28  53 SE6       29.73F
LONGMONT       NOT AVBL
$$

COZ041-046-047-076>085-087-088-102200-
...PIKES PEAK/PALMER DIVIDE AND SOUTHERN FOOTHILLS...

CITY           SKY/WX    TMP DP  RH WIND       PRES   REMARKS
COLO. SPRINGS  PTSUNNY   59  19  21 E10       29.78F
A. F. ACADEMY  FAIR      61  13  15 W18G35    29.77F
SCHRIEVER AFB  NOT AVBL
ELLICOTT       FAIR     N/A N/A N/A SE7       29.77F
FALCON         FAIR      60  12  15 W23       29.82S
FORT CARSON    FAIR      66  14  13 NW8G33    29.73F
LIMON          FAIR      61  17  18 SW16      29.74F
MONUMENT HILL  FAIR      55  16  21 W25G35    29.82S
TRINIDAD       FAIR      67  11  11 W14G26    29.81F
$$

COZ042>045-048>051-090-091-102200-
...NORTHEAST COLORADO...

CITY           SKY/WX    TMP DP  RH WIND       PRES   REMARKS
GREELEY ARPT   FAIR      31  23  72 NE5       29.75F WCI  26
AKRON          FAIR      36  27  69 CALM      29.76R
BURLINGTON     FAIR      55  21  26 S13       29.75F
WRAY           NOT AVBL
STERLING       FAIR      30  23  74 S3        29.75F
HOLYOKE        FAIR      34  27  75 SE5       29.79F WCI  30
FORT MORGAN    FAIR      32  24  72 SW3       29.76F
$$

COZ086-089-092>099-102200-
...SOUTHEAST COLORADO...

CITY           SKY/WX    TMP DP  RH WIND       PRES   REMARKS
PUEBLO         FAIR      64  23  21 SE8       29.74F
LA JUNTA       FAIR      59  22  24 E9        29.76F
LAMAR          FAIR      53  23  31 E9        29.76F
SPRINGFIELD      N/A     68  23  18 S10       29.79F
$$




USA.gov is the U.S. government's official web portal to all federal, state and local government web resources and services.